Weather History for KF05 - March, 2013

Change the Weather History Date:

Saturday, March 16, 2013

  Actual Average (KLTS) Record (KLTS)
Temperature  
Mean Temperature 67 °F -  
Max Temperature 89 °F 62 °F 80 °F (2011)
Min Temperature 53 °F 39 °F 30 °F (2001)
Cooling Degree Days 2    
Growing Degree Days 17 (Base 50)    
Moisture  
Dew Point 41 °F    
Average Humidity 40    
Maximum Humidity 60    
Minimum Humidity 23    
Precipitation  
Precipitation 0.00 in - - ()
Sea Level Pressure  
Sea Level Pressure 29.73 in    
Wind  
Wind Speed 13 mph (West)    
Max Wind Speed 25 mph    
Max Gust Speed 33 mph    
Visibility 10 miles    
Events      
Averages and records for this station are not official NWS values.
T = Trace of Precipitation, MM = Missing Value Source: NWS Daily Summary

Daily Weather History Graph

Daily Weather History Graph

Search for Another Location

Airport or City:

Trip Planner

Search our weather history database for the weather conditions in past years. The results will help you decide how hot, cold, wet, or windy it might be!

Date:

Astronomy

Mar. 16, 2013 Rise Set
Actual Time 7:45 AM CDT 7:45 PM CDT
Civil Twilight 7:20 AM CDT 8:10 PM CDT
Nautical Twilight 6:51 AM CDT 8:40 PM CDT
Astronomical Twilight 6:22 AM CDT 9:09 PM CDT
Moon 10:30 AM CDT (3/16) No Moon Set
Length of Visible Light 12h 50m
Length of Day
12h 00m
Waxing Crescent, 23% of the Moon is Illuminated
Mar 16
Waxing Crescent
Mar 19
First Quarter
Mar 27
Full
Apr 2
Last Quarter
Apr 10
New

Hourly Weather History & Observations

Time (CDT) Temp. Dew Point Humidity Pressure Visibility Wind Dir Wind Speed Gust Speed Precip Events Conditions
12:15 AM 69.3 °F 38.3 °F 32% 29.78 in 10.0 mi South 13.8 mph - N/A   Clear
12:35 AM 69.1 °F 38.3 °F 32% 29.77 in 10.0 mi South 16.1 mph - N/A   Clear
12:55 AM 69.6 °F 38.3 °F 32% 29.77 in 10.0 mi SSW 16.1 mph - N/A   Clear
1:15 AM 69.6 °F 38.3 °F 32% 29.77 in 10.0 mi SSW 16.1 mph - N/A   Clear
1:35 AM 69.3 °F 38.3 °F 32% 29.76 in 10.0 mi SSW 17.3 mph - N/A   Clear
1:55 AM 68.4 °F 38.3 °F 33% 29.76 in 10.0 mi SSW 15.0 mph - N/A   Clear
2:15 AM 67.8 °F 38.3 °F 34% 29.75 in 10.0 mi SSW 16.1 mph - N/A   Clear
2:35 AM 66.9 °F 38.8 °F 36% 29.75 in 10.0 mi SSW 12.7 mph - N/A   Clear
2:55 AM 66.4 °F 39.2 °F 37% 29.75 in 10.0 mi SSW 12.7 mph - N/A   Clear
3:15 AM 66.2 °F 39.6 °F 38% 29.75 in 10.0 mi SSW 12.7 mph - N/A   Clear
3:35 AM 66.2 °F 39.7 °F 38% 29.74 in 10.0 mi SSW 12.7 mph - N/A   Clear
3:55 AM 66.0 °F 39.9 °F 38% 29.73 in 10.0 mi SSW 12.7 mph - N/A   Clear
4:15 AM 65.5 °F 40.1 °F 39% 29.73 in 10.0 mi SSW 11.5 mph - N/A   Clear
4:35 AM 64.9 °F 40.3 °F 40% 29.72 in 10.0 mi South 10.4 mph - N/A   Clear
4:55 AM 63.5 °F 40.6 °F 43% 29.72 in 10.0 mi South 10.4 mph - N/A   Clear
5:35 AM 61.3 °F 41.0 °F 47% 29.72 in 10.0 mi South 10.4 mph - N/A   Clear
5:55 AM 60.6 °F 40.8 °F 48% 29.72 in 10.0 mi SSW 10.4 mph - N/A   Clear
6:15 AM 58.8 °F 41.0 °F 52% 29.72 in 10.0 mi South 9.2 mph - N/A   Clear
6:35 AM 58.3 °F 40.8 °F 52% 29.72 in 10.0 mi South 10.4 mph - N/A   Clear
6:55 AM 58.8 °F 40.5 °F 51% 29.72 in 10.0 mi South 10.4 mph - N/A   Clear
7:15 AM 58.8 °F 40.3 °F 50% 29.72 in 10.0 mi South 12.7 mph - N/A   Clear
7:35 AM 58.3 °F 40.1 °F 51% 29.72 in 10.0 mi South 9.2 mph - N/A   Clear
7:55 AM 57.6 °F 40.1 °F 52% 29.73 in 10.0 mi SSE 5.8 mph - N/A   Clear
8:15 AM 55.6 °F 40.1 °F 56% 29.73 in 10.0 mi SSE 8.1 mph - N/A   Clear
8:35 AM 54.5 °F 41.0 °F 60% 29.72 in 10.0 mi South 8.1 mph - N/A   Clear
8:55 AM 57.2 °F 41.5 °F 56% 29.72 in 10.0 mi South 9.2 mph - N/A   Clear
9:15 AM 61.0 °F 41.5 °F 49% 29.73 in 10.0 mi South 10.4 mph - N/A   Clear
9:35 AM 63.9 °F 41.0 °F 43% 29.73 in 10.0 mi SSW 11.5 mph - N/A   Clear
9:55 AM 65.7 °F 41.0 °F 41% 29.73 in 10.0 mi SSW 12.7 mph - N/A   Clear
10:15 AM 67.8 °F 40.6 °F 37% 29.73 in 10.0 mi SSW 15.0 mph - N/A   Clear
10:35 AM 69.6 °F 40.1 °F 34% 29.73 in 10.0 mi SW 16.1 mph - N/A   Clear
10:55 AM 70.7 °F 39.6 °F 32% 29.73 in 10.0 mi SW 12.7 mph 18.4 mph N/A   Clear
11:15 AM 72.1 °F 39.2 °F 30% 29.73 in 10.0 mi WSW 11.5 mph - N/A   Clear
11:35 AM 73.4 °F 38.1 °F 28% 29.73 in 10.0 mi West 11.5 mph - N/A   Clear
11:55 AM 74.3 °F 37.8 °F 27% 29.73 in 10.0 mi West 6.9 mph - N/A   Clear
12:15 PM 75.6 °F 36.5 °F 24% 29.73 in 10.0 mi NW 6.9 mph - N/A   Clear
12:35 PM 75.9 °F 36.5 °F 24% 29.74 in 10.0 mi NW 4.6 mph - N/A   Clear
12:55 PM 76.1 °F 36.5 °F 24% 29.74 in 10.0 mi North 5.8 mph - N/A   Clear
1:15 PM 76.3 °F 36.3 °F 24% 29.74 in 10.0 mi Calm Calm - N/A   Clear
1:35 PM 77.5 °F 37.4 °F 24% 29.73 in 10.0 mi North 5.8 mph - N/A   Clear
1:55 PM 77.4 °F 37.8 °F 24% 29.73 in 10.0 mi Calm Calm - N/A   Clear
2:15 PM 77.9 °F 37.6 °F 23% 29.72 in 10.0 mi North 4.6 mph - N/A   Clear
2:35 PM 78.6 °F 38.8 °F 24% 29.71 in 10.0 mi North 9.2 mph - N/A   Clear
2:55 PM 78.6 °F 40.5 °F 26% 29.71 in 10.0 mi North 9.2 mph - N/A   Clear
3:15 PM 78.8 °F 40.6 °F 26% 29.69 in 10.0 mi North 6.9 mph - N/A   Clear
3:35 PM 79.5 °F 40.5 °F 25% 29.69 in 10.0 mi NNW 8.1 mph - N/A   Clear
3:55 PM 79.7 °F 39.7 °F 24% 29.69 in 10.0 mi NNW 5.8 mph - N/A   Clear
4:15 PM 80.4 °F 39.4 °F 23% 29.69 in 10.0 mi North 5.8 mph - N/A   Clear
4:35 PM 80.8 °F 40.1 °F 23% 29.69 in 10.0 mi NNW 6.9 mph - N/A   Clear
4:55 PM 79.9 °F 46.4 °F 31% 29.69 in 10.0 mi North 19.6 mph 25.3 mph N/A   Clear
5:15 PM 78.1 °F 48.2 °F 35% 29.69 in 10.0 mi North 18.4 mph 24.2 mph N/A   Clear
5:35 PM 77.0 °F 48.7 °F 37% 29.70 in 10.0 mi North 23.0 mph - N/A   Clear
5:55 PM 75.0 °F 49.3 °F 40% 29.70 in 10.0 mi North 20.7 mph 26.5 mph N/A   Clear
6:15 PM 73.8 °F 49.1 °F 42% 29.70 in 10.0 mi North 19.6 mph 26.5 mph N/A   Clear
6:35 PM 72.5 °F 48.6 °F 43% 29.70 in 10.0 mi North 23.0 mph 27.6 mph N/A   Clear
6:55 PM 70.9 °F 48.4 °F 45% 29.71 in 10.0 mi North 25.3 mph 31.1 mph N/A   Clear
7:15 PM 69.3 °F 47.8 °F 46% 29.71 in 10.0 mi North 17.3 mph 29.9 mph N/A   Clear
7:35 PM 67.5 °F 47.3 °F 48% 29.72 in 10.0 mi North 23.0 mph 29.9 mph N/A   Clear
7:55 PM 66.2 °F 46.8 °F 50% 29.73 in 10.0 mi North 19.6 mph 26.5 mph N/A   Clear
8:15 PM 64.9 °F 46.2 °F 51% 29.74 in 10.0 mi North 18.4 mph 27.6 mph N/A   Clear
8:35 PM 63.7 °F 45.0 °F 51% 29.74 in 10.0 mi North 21.9 mph 28.8 mph N/A   Clear
8:55 PM 62.2 °F 43.7 °F 51% 29.75 in 10.0 mi North 20.7 mph 26.5 mph N/A   Clear
9:15 PM 61.0 °F 43.2 °F 52% 29.76 in 10.0 mi North 17.3 mph 25.3 mph N/A   Clear
9:35 PM 60.1 °F 42.8 °F 53% 29.76 in 10.0 mi North 21.9 mph 31.1 mph N/A   Clear
9:55 PM 59.7 °F 42.3 °F 52% 29.76 in 10.0 mi NNE 20.7 mph 27.6 mph N/A   Clear
10:15 PM 59.2 °F 41.7 °F 52% 29.76 in 10.0 mi NNE 20.7 mph 27.6 mph N/A   Clear
10:35 PM 58.1 °F 41.4 °F 54% 29.76 in 10.0 mi North 18.4 mph 25.3 mph N/A   Clear
10:55 PM 56.7 °F 40.3 °F 54% 29.77 in 10.0 mi NNE 19.6 mph 31.1 mph N/A   Clear
11:15 PM 55.4 °F 39.2 °F 54% 29.78 in 10.0 mi North 20.7 mph 29.9 mph N/A   Clear
11:35 PM 54.3 °F 38.7 °F 55% 29.79 in 10.0 mi North 19.6 mph 29.9 mph N/A   Clear
11:55 PM 53.4 °F 38.1 °F 56% 29.79 in 10.0 mi North 24.2 mph 33.4 mph N/A   Clear